Location: Palomar Mountain Lodge
(33.3110°N, 116.8495°W)
Time: 20:41:21
(UTC-08:00)

NOAA 11 - Pass Details

Date: 19 May 2017
Orbit: 834 x 849 km, 98.5° (Epoch: 20 November)

Event Time Altitude Azimuth Distance (km) Brightness Sun altitude
Exits shadow 21:47:47 45° 159° (SSE) 1,123 4.4 -22.1°
Maximum altitude 21:49:31 83° 77° (ENE) 849 4.1 -22.4°
Drops below altitude 10° 21:54:59 10° 349° (N) 2,455 7.4 -23.2°
Sets 21:57:20 0° 349° (N) 3,391 8.3 -23.5°
